Flag for U.S.A. Weather past 2 weeks in Carson City, Nevada, U.S.A.

Now
45 °F

Light rain. Fog.


Feels Like: 43 °F
Forecast: 34 / 47 °F
Wind: 5 mph from East

Location: Reno Tahoe International Airport

Current Time: Jan 27, 2015 at 10:05:07 AM

Latest Report: Jan 27, 2015 at 8:55 AM


Visibility: 10 mi

Pressure: 30.13 "Hg

Humidity: 80%

Dew point: 39 °F

Location of Carson CityLocation

Historic Weather in Carson City — Graph

°F

Carson City temperature yesterday

Maximum temperature yesterday: 61 °F (at 2:55 PM)
Minimum temperature yesterday: 28 °F (at 5:55 AM)
Average temperature yesterday: 44 °F

Past Weeks' High & Low Weather Summary

 TemperatureHumidityPressure
High63 °F (Jan 18, 12:55 PM)96% (Jan 17, 6:55 AM)30.60 "Hg (Jan 17, 6:55 AM)
Low23 °F (Jan 14, 6:55 AM)23% (Jan 18, 12:55 PM)30.00 "Hg (Jan 27, 2:55 AM)
Average41 °F60%30.29 "Hg
* Reported Jan 12 8:55 AM — Jan 27 8:55 AM, Carson City, Weather by CustomWeather, © 2014

Note: Actual official high and low records may vary slightly from our data, if they occured in-between our weather recording intervals... More about our weather records

Advertising

Carson City weather history for previous 24 hours

 ConditionsComfort  
Time TempWeatherWind HumidityBarometerVisibility
8:55 AM
Jan 27
45 °FLight rain. Fog.5 mph80%30.13 "Hg10 mi
7:55 AM45 °FLight rain. More clouds than sun.3 mph53%30.10 "Hg10 mi
6:55 AM43 °FMostly cloudy.3 mph58%30.06 "Hg10 mi
5:55 AM42 °FMostly cloudy.No wind62%30.03 "Hg10 mi
4:55 AM41 °FMostly cloudy.No wind65%30.01 "Hg10 mi
3:55 AM41 °FMostly cloudy.No wind65%30.01 "Hg10 mi
2:55 AM42 °FPassing clouds.No wind62%30.00 "Hg10 mi
1:55 AM42 °FPartly cloudy.3 mph60%30.01 "Hg10 mi
12:55 AM42 °FPartly cloudy.No wind60%30.02 "Hg10 mi
11:55 PM
Jan 26
42 °FPartly cloudy.No wind60%30.04 "Hg10 mi
10:55 PM42 °FPassing clouds.3 mph60%30.04 "Hg10 mi
9:55 PM46 °FPartly cloudy.5 mph51%30.03 "Hg10 mi
8:55 PM48 °FPassing clouds.No wind48%30.06 "Hg10 mi
7:55 PM50 °FPassing clouds.No wind44%30.07 "Hg10 mi
6:55 PM53 °FPassing clouds.7 mph39%30.05 "Hg10 mi
5:55 PM55 °FPartly cloudy.No wind35%30.04 "Hg10 mi
4:55 PM60 °FPartly sunny.No wind28%30.01 "Hg10 mi
3:55 PM61 °FBroken clouds.No wind27%30.01 "Hg10 mi
2:55 PM61 °FMore clouds than sun.3 mph29%30.03 "Hg10 mi
1:55 PM59 °FBroken clouds.3 mph31%30.04 "Hg10 mi
12:55 PM54 °FMore clouds than sun.3 mph35%30.09 "Hg10 mi
11:55 AM51 °FBroken clouds.No wind39%30.12 "Hg10 mi
10:55 AM48 °FBroken clouds.No wind46%30.18 "Hg10 mi
Weather by CustomWeather, © 2014

See weather overviewHow to use our weather pages